Wind_Speed
48 46 43 46 50 50 47 44 43 43 40 39 41 40 40 42 41 41 35 32 37 33 28 30 29 30 31 30 30 32 34 33 31 29 29 29 29 29 30 30 30 30 30 30 30 31 31 31 30 29 28 28 28 28 28 28 28 29 30 31 32 32 32 33 35 35 36 38 39 39 40 41 42 45 47 49 50 51 53 54 56 57 59 61 63 64
51 47 45 51 54 50 46 46 46 44 42 42 43 42 42 42 43 44 37 34 38 34 30 33 30 30 33 32 30 30 33 36 33 31 31 31 30 31 32 32 31 32 31 31 32 32 32 33 32 31 31 30 30 31 31 31 32 32 33 34 35 35 36 36 38 38 39 41 42 43 44 45 47 49 50 52 53 55 57 58 59 61 62 64 66 68
53 49 49 53 53 51 49 49 48 46 44 44 44 45 44 44 45 45 41 38 39 36 34 34 31 31 34 34 33 31 31 35 36 34 34 33 33 33 33 32 33 33 32 32 33 33 33 34 35 34 33 33 33 34 34 35 35 35 36 37 38 38 39 40 41 42 43 44 46 47 48 49 51 52 53 54 56 57 59 61 63 64 65 67 69 71
54 52 52 53 53 53 53 50 48 47 47 47 47 46 45 47 47 46 43 40 39 39 38 36 32 31 35 36 36 34 32 34 37 37 36 34 35 35 34 33 33 33 34 34 34 35 35 36 36 36 36 36 36 36 37 37 38 38 39 40 41 41 42 44 45 46 47 48 50 51 52 53 54 55 55 56 57 59 60 63 65 67 67 69 71 73
54 53 52 53 56 55 54 51 49 49 48 49 49 47 47 49 49 47 45 41 41 42 40 38 34 31 36 38 37 38 36 36 38 39 38 37 36 37 36 34 34 34 35 36 36 36 37 37 38 38 38 38 39 39 40 40 41 41 42 42 43 44 45 46 48 49 50 51 53 54 55 56 57 57 58 58 59 61 62 64 67 69 70 71 73 75
55 53 51 54 58 57 54 52 51 50 50 50 49 49 48 49 50 49 47 43 42 43 42 41 36 32 36 39 39 41 41 39 40 41 40 38 37 39 39 37 36 36 37 37 38 38 39 39 40 40 41 41 41 42 42 43 44 44 44 45 45 46 47 49 50 51 52 54 55 57 58 59 59 60 60 61 62 63 64 66 69 71 72 73 76 78
55 54 54 55 57 58 56 53 53 53 52 50 49 49 50 50 51 49 48 45 43 44 42 42 39 34 34 39 43 43 43 43 44 44 42 40 40 40 40 39 39 38 39 39 39 40 40 41 41 42 43 43 44 45 46 46 46 46 47 47 48 49 50 51 52 54 55 56 58 59 61 62 62 62 63 64 65 66 67 69 71 73 74 76 78 81
56 57 57 56 57 58 57 56 55 55 54 51 50 50 50 51 52 50 48 46 45 45 42 41 43 38 33 39 48 46 42 44 47 48 45 41 41 42 41 42 41 41 41 41 41 42 42 42 43 44 45 46 47 48 49 49 49 49 50 50 51 52 53 54 55 56 57 59 61 62 63 64 65 66 66 67 68 69 70 71 73 74 76 79 81 83
57 58 58 58 58 57 57 58 58 57 55 52 53 52 51 53 53 52 50 47 46 44 41 42 46 44 35 38 49 48 45 47 49 50 48 43 43 43 43 44 44 44 43 43 43 43 44 44 45 46 47 48 49 50 51 51 52 52 52 53 54 55 55 56 57 58 60 61 63 64 66 67 68 69 69 70 71 71 72 74 75 77 79 82 84 85
57 58 61 60 59 57 58 59 59 57 55 53 54 54 54 54 54 54 52 50 47 41 39 45 50 49 40 37 45 46 47 51 52 51 50 48 46 45 45 46 46 46 45 45 45 46 46 47 48 48 49 51 51 52 53 54 54 54 55 55 55 56 57 57 58 59 61 62 64 66 67 68 69 70 71 72 73 74 75 76 78 80 82 84 86 87
58 59 61 60 59 58 59 59 59 58 56 55 55 55 55 55 54 55 52 51 48 41 42 49 52 51 42 36 42 45 46 52 55 53 51 51 49 47 48 48 48 48 47 48 48 49 49 49 50 51 52 53 54 55 55 55 55 55 56 56 56 57 58 58 59 60 62 63 64 66 67 69 70 71 72 73 75 76 77 79 80 82 84 86 88 88
60 60 60 60 61 60 59 59 59 58 57 56 56 55 56 55 54 54 53 52 49 44 47 52 53 51 41 36 43 46 46 51 55 55 53 53 51 50 50 50 50 50 50 50 51 51 52 52 53 54 55 56 56 57 57 56 56 56 56 57 57 58 59 60 61 62 64 65 66 67 68 69 70 71 73 74 76 77 79 81 83 85 86 87 88 88
62 61 61 61 61 60 61 60 59 58 58 57 56 55 55 55 54 53 52 52 51 48 50 51 52 49 40 39 45 47 48 50 53 56 55 55 53 52 53 53 52 52 52 52 53 53 54 54 55 56 57 58 58 58 58 57 57 57 57 58 58 59 60 62 63 65 66 68 69 69 70 71 72 73 74 75 77 79 81 83 84 85 86 87 87 89
63 63 63 62 61 62 63 61 60 59 58 57 56 56 56 55 54 52 52 53 52 50 49 49 50 46 41 42 47 50 51 51 53 56 56 56 56 54 55 55 54 54 54 54 55 55 56 56 57 58 58 59 59 59 58 57 57 58 58 59 60 62 63 65 66 67 69 70 71 71 72 72 73 74 76 77 79 81 82 84 84 85 86 87 89 91
63 63 63 64 63 64 63 63 62 60 57 56 57 57 55 55 56 54 54 55 52 50 49 48 48 45 44 46 48 51 54 54 55 57 57 57 57 57 56 56 56 56 57 57 57 57 57 58 58 59 59 59 58 58 57 57 58 59 61 62 64 65 67 68 69 70 72 72 73 73 74 74 75 77 78 79 80 81 82 83 84 86 88 90 92 94
65 64 63 64 63 64 63 63 63 60 57 57 57 55 53 55 58 57 55 55 54 51 48 47 47 46 48 49 48 51 54 57 58 58 58 59 58 59 58 58 59 59 58 58 58 58 58 58 58 58 58 58 58 58 58 59 60 62 63 65 67 68 69 70 71 73 74 74 75 75 76 76 77 78 79 79 80 81 83 84 87 89 91 93 95 97
67 65 62 62 63 64 64 64 62 60 57 57 56 54 54 57 59 57 55 55 56 53 47 46 47 47 49 48 47 51 54 57 59 59 59 59 59 60 60 60 60 60 59 59 59 59 58 58 58 58 58 59 59 60 61 62 63 64 66 68 70 71 71 73 74 74 75 75 76 76 77 77 78 78 79 80 82 84 87 89 91 93 94 97 99 101
68 65 62 62 62 63 64 64 62 59 57 57 57 56 57 59 59 58 58 56 56 54 49 47 48 47 48 46 47 51 54 56 58 58 59 59 60 60 61 61 61 60 60 59 59 59 58 58 58 59 60 61 62 62 63 64 65 67 69 70 72 73 74 75 75 75 75 76 76 77 78 78 79 81 83 85 87 89 91 93 94 96 98 100 102 104
70 67 64 62 62 64 65 64 61 59 59 59 59 58 59 61 60 60 60 57 56 55 50 48 49 48 47 47 47 49 52 56 57 57 58 58 59 60 60 60 60 60 60 59 59 59 59 59 60 61 63 63 63 64 64 66 67 69 71 73 75 76 76 76 76 76 76 77 78 79 80 81 83 85 87 89 91 92 94 96 98 100 102 103 105 107
73 72 68 63 63 66 65 64 62 62 63 62 60 59 60 61 61 61 60 58 57 56 53 51 50 48 47 47 47 46 49 54 56 56 56 57 58 58 59 59 60 60 60 60 60 60 61 62 63 64 65 64 65 65 67 69 70 72 74 75 76 77 77 77 77 77 77 78 79 81 82 84 86 88 90 92 93 95 97 99 100 102 104 105 107 109
77 76 73 69 68 67 64 64 65 65 64 62 59 60 61 63 64 63 60 58 59 58 57 56 51 47 48 47 45 46 49 53 57 58 58 58 59 60 60 60 61 61 61 61 62 63 64 66 66 67 66 66 67 69 70 72 74 75 76 77 77 78 78 78 79 79 80 80 81 82 84 86 88 90 92 94 96 98 99 101 103 104 106 108 110 112
80 79 77 75 71 67 66 66 67 66 63 61 61 61 62 64 65 64 60 59 62 60 59 59 50 42 46 48 46 49 52 55 60 62 62 63 63 63 64 64 63 63 64 64 64 65 67 68 68 68 68 69 71 72 74 75 77 77 78 79 79 80 80 80 81 81 82 83 84 85 87 89 91 93 95 97 99 100 102 103 105 107 108 110 113 115
83 81 80 78 73 71 70 67 66 65 63 62 62 62 64 65 65 67 65 62 64 61 58 60 51 40 44 50 51 54 55 56 60 63 64 65 65 64 64 64 64 64 65 65 66 67 69 69 70 71 72 72 73 75 77 77 78 78 79 80 81 81 81 82 82 83 84 85 87 89 91 93 94 96 98 100 101 103 104 106 107 109 111 113 115 117
85 84 83 82 80 77 73 67 65 63 63 64 64 65 68 67 67 70 67 64 63 58 58 61 52 41 44 51 55 57 57 57 60 62 64 66 66 66 64 64 64 65 65 65 66 68 69 69 70 71 72 74 75 77 78 78 78 79 80 81 81 82 82 83 84 85 86 87 89 91 93 95 97 98 100 102 104 106 107 109 111 113 114 116 117 118
87 87 87 87 86 82 76 69 65 65 67 69 68 68 68 68 70 70 67 67 62 56 59 61 50 45 50 53 54 57 58 59 60 62 64 65 67 68 68 67 68 68 69 69 69 69 70 70 71 72 73 74 76 77 78 78 79 80 80 81 82 83 83 84 85 86 87 89 91 93 95 97 99 102 104 106 108 110 111 112 114 115 116 117 117 118
87 89 90 89 88 85 78 73 71 71 73 72 69 68 69 71 73 71 69 68 61 56 63 61 51 51 56 56 55 58 60 62 62 63 65 67 69 71 72 72 72 72 73 72 72 72 72 73 74 75 76 77 78 79 79 80 80 81 82 83 84 84 85 86 87 88 89 91 93 95 98 101 103 105 107 110 111 113 113 114 115 116 117 117 118 119
88 90 90 89 87 84 79 77 78 77 74 71 70 70 71 72 74 74 72 66 62 65 66 59 57 59 58 59 61 62 63 65 66 67 69 71 72 73 73 74 74 75 75 75 74 74 75 77 78 78 79 80 81 81 81 81 82 83 84 84 85 86 87 88 89 90 92 94 96 99 102 104 106 108 111 113 114 114 115 116 116 117 117 117 118 119
88 89 89 88 87 84 81 82 84 81 76 73 73 73 73 74 76 76 72 66 70 75 66 59 66 66 60 64 67 65 66 69 69 71 72 74 76 75 75 75 76 77 77 77 76 76 77 77 78 79 80 81 82 82 83 84 85 85 86 86 87 88 89 90 92 94 96 98 101 104 106 108 110 111 113 115 115 115 116 116 116 115 116 116 117 117
87 88 88 88 89 86 84 85 87 86 83 80 78 78 78 79 78 76 74 71 77 79 67 65 73 70 66 72 72 68 70 71 72 73 74 75 77 77 77 78 78 78 77 76 76 75 75 76 77 79 80 81 83 84 85 86 86 87 88 89 90 91 93 95 96 98 100 102 105 107 109 110 112 113 115 115 115 115 115 115 114 115 115 115 115 114
87 88 87 89 91 88 85 86 87 89 89 86 84 82 81 81 80 78 77 77 80 79 72 72 77 73 71 75 74 73 75 74 75 76 75 76 77 77 79 79 78 78 76 75 75 75 76 77 79 80 81 82 84 85 86 86 88 89 90 92 93 95 96 98 100 102 103 105 108 109 111 112 113 114 115 115 114 114 114 114 114 113 113 112 112 112
87 88 87 90 93 90 85 85 88 90 91 90 88 85 82 80 80 82 81 80 82 81 77 79 80 74 73 77 78 78 78 77 78 78 78 78 78 79 80 79 78 78 76 76 76 77 79 80 81 83 83 84 85 85 86 88 89 91 93 95 97 98 99 101 102 104 106 107 109 111 112 112 113 114 115 114 114 113 113 113 112 111 111 110 111 112
88 88 87 89 92 89 84 86 90 91 93 93 90 84 80 80 82 85 84 83 84 83 82 84 81 75 77 83 82 80 80 80 81 81 82 82 80 80 80 79 79 79 79 79 80 81 82 83 84 85 86 86 87 87 89 90 92 94 96 98 99 100 102 103 104 106 107 109 110 111 112 113 113 114 114 113 113 112 112 111 110 110 110 111 112 115
90 90 89 90 92 88 84 87 90 92 96 95 87 80 81 84 87 87 85 84 85 86 86 86 82 79 83 85 83 82 84 84 83 83 82 82 81 81 80 80 81 81 82 82 82 83 84 85 86 86 87 89 90 92 93 95 97 99 100 101 102 102 103 104 106 107 108 109 110 111 111 112 113 113 113 112 111 111 111 110 110 111 112 114 116 120
92 92 91 92 94 91 86 87 90 93 96 91 82 79 83 86 87 87 84 83 84 86 87 85 83 83 84 85 84 85 85 84 84 83 81 81 81 82 82 82 83 84 84 84 84 85 86 86 88 88 90 91 93 94 97 98 100 101 102 102 103 104 105 105 106 107 108 109 110 110 110 111 111 112 111 111 111 111 111 112 113 114 116 119 122 126
96 94 93 93 95 94 91 90 93 93 90 84 81 81 82 83 84 85 83 82 82 84 85 85 85 84 84 85 85 85 85 85 85 83 82 81 82 83 84 84 85 86 86 86 87 88 89 90 91 92 93 95 95 97 98 100 101 101 102 103 103 104 105 105 106 107 107 108 109 109 109 109 110 111 111 111 111 112 113 115 117 119 122 125 128 131
97 96 95 95 95 95 94 94 94 93 88 85 83 81 80 81 82 84 84 83 83 85 86 85 84 85 85 85 85 85 86 86 86 84 83 84 86 87 88 88 88 88 88 88 90 91 92 94 95 95 96 97 98 99 99 100 101 101 102 103 103 104 104 105 105 106 107 107 107 107 108 109 110 111 111 112 114 116 118 120 123 125 128 131 134 136
97 97 98 98 98 98 97 97 96 95 92 88 85 82 82 83 83 85 87 85 85 88 89 86 85 86 87 87 87 87 88 89 87 85 86 89 91 92 91 90 90 90 90 92 93 94 95 96 96 97 97 98 98 99 100 100 101 102 102 103 103 104 104 104 105 106 106 107 107 108 109 110 112 113 114 116 119 121 124 126 129 131 134 136 138 141
97 97 98 100 100 99 99 100 99 98 94 89 87 87 87 87 87 89 91 88 86 89 91 90 89 90 91 92 91 91 92 92 89 88 91 94 95 95 94 93 92 93 94 95 96 97 97 97 97 98 98 98 99 99 100 101 102 102 103 103 103 104 104 104 105 106 107 108 109 110 112 113 114 116 119 121 124 127 129 132 134 137 139 141 144 145
97 97 98 100 102 101 101 101 101 99 95 91 90 92 91 91 91 93 94 90 87 90 94 95 94 95 96 96 95 94 95 94 92 93 96 97 97 98 98 96 96 97 97 98 98 98 98 98 99 99 99 99 100 101 102 102 102 103 103 103 104 104 105 107 108 109 110 111 112 113 115 117 119 121 124 127 129 132 135 137 139 142 144 146 148 150
97 98 99 100 102 101 101 101 101 100 97 94 93 94 94 95 95 96 96 93 90 93 97 98 98 99 99 99 98 98 98 97 96 97 98 99 100 101 101 100 100 100 100 101 100 100 100 100 100 100 101 101 102 103 103 103 104 104 105 105 105 107 110 111 112 112 113 115 116 118 120 122 124 126 129 132 134 137 140 142 144 146 149 151 152 153
101 101 101 101 101 101 102 102 102 101 98 96 96 96 97 98 98 99 98 96 95 97 100 100 100 100 100 101 101 101 101 100 99 99 100 101 102 103 103 104 103 103 103 103 103 102 103 103 103 104 104 104 105 105 105 106 106 107 108 109 111 114 116 115 115 116 117 119 120 123 125 127 130 132 134 137 139 142 144 146 149 151 153 154 155 155
107 106 105 104 103 103 103 104 104 103 100 98 98 99 100 100 101 101 100 100 100 100 101 101 101 101 102 102 103 102 103 103 103 103 103 104 104 105 105 105 105 106 106 105 105 106 106 106 106 107 107 107 107 108 109 109 110 112 113 115 118 120 119 118 118 120 122 124 126 128 130 132 135 137 139 142 144 146 148 151 153 155 156 157 157 156
108 108 108 107 106 106 106 107 107 105 102 101 101 101 102 103 103 103 102 102 102 102 102 103 103 103 104 104 104 104 105 105 106 106 106 106 106 106 106 107 107 108 108 108 109 109 109 109 109 109 110 110 111 112 112 114 115 117 118 120 122 122 121 122 123 125 126 128 131 133 135 137 139 141 144 146 148 150 152 155 157 158 158 158 157 155
109 109 108 108 108 109 109 109 109 108 106 105 105 105 106 106 106 105 105 104 104 104 105 105 105 105 106 106 107 108 108 108 108 108 108 108 108 108 109 110 111 112 112 113 113 113 113 113 113 113 114 114 115 116 117 118 119 120 122 123 124 124 125 126 128 129 131 133 135 137 139 141 143 146 148 150 152 154 156 158 159 160 159 157 155 153
112 111 111 111 111 112 112 112 113 113 112 111 110 110 110 109 109 108 107 107 107 107 107 107 107 108 108 109 110 110 110 111 111 110 110 110 111 112 113 114 115 116 117 117 117 117 117 117 117 118 118 119 119 120 121 122 122 123 125 126 127 127 129 130 132 133 135 137 139 141 143 145 147 150 152 154 156 158 160 161 161 160 158 156 153 149
115 114 114 114 115 115 115 115 115 115 115 115 114 114 113 113 112 111 111 110 110 110 110 110 110 111 111 111 112 112 112 112 112 112 113 113 114 115 115 116 118 119 120 120 121 121 121 121 121 121 122 123 124 124 124 124 125 126 128 129 130 131 133 134 136 137 139 141 143 145 147 149 151 154 156 158 160 161 162 161 160 159 156 153 148 144
116 116 116 116 116 117 116 116 116 116 117 117 117 116 116 115 114 114 113 113 113 113 113 113 113 113 114 114 114 114 114 114 114 114 115 116 116 117 118 119 120 121 122 123 123 123 123 123 124 125 125 126 127 127 127 128 128 130 131 133 134 135 137 138 140 141 143 144 146 148 151 153 155 158 160 162 163 163 161 160 158 156 152 147 143 140
118 118 118 118 118 118 117 117 118 118 118 119 119 119 118 117 116 115 115 115 115 115 115 115 115 115 116 116 116 116 116 116 117 117 118 119 120 120 121 122 123 123 124 125 125 125 126 126 127 128 128 129 130 130 131 131 132 134 135 137 138 139 141 142 144 145 146 148 150 152 155 158 160 162 163 164 163 162 160 158 154 150 146 142 139 137
119 119 119 119 118 118 118 119 120 120 120 120 120 120 119 118 117 116 116 116 117 117 117 117 117 117 117 118 118 118 119 120 120 120 121 122 122 123 124 124 125 126 127 127 128 128 128 129 130 130 131 132 133 134 134 135 137 138 139 140 142 143 144 146 147 148 150 152 154 157 160 162 164 165 164 163 162 160 157 153 149 145 141 139 136 134
119 119 119 119 119 119 120 120 121 121 121 121 121 120 120 119 118 118 118 119 119 118 118 118 118 119 119 120 121 121 122 123 123 123 124 124 125 126 126 127 128 129 129 130 131 131 131 132 133 133 135 136 137 137 138 139 141 142 143 144 145 146 148 149 150 152 154 156 159 162 164 165 166 165 164 162 159 156 151 147 143 141 138 136 134 131
120 121 121 120 120 121 121 121 122 122 121 121 121 121 121 120 120 120 120 120 120 120 119 119 120 120 121 122 123 124 124 125 126 126 126 127 128 129 129 130 131 132 132 133 134 134 135 135 136 137 138 139 140 141 142 143 144 145 147 148 149 150 151 153 154 156 159 161 164 166 167 167 166 165 161 158 153 149 146 142 140 137 135 133 131 127
Wind_Direction
259 259 261 261 258 258 260 262 260 261 262 263 263 264 266 268 268 266 263 263 265 266 267 265 264 267 267 263 262 267 269 266 264 265 265 264 266 268 270 270 271 271 270 271 270 270 272 275 276 277 276 277 278 279 281 283 285 287 287 288 288 289 291 292 293 293 293 293 293 294 294 294 295 296 297 298 299 300 301 302 303 305 306 307 307 307
259 258 259 259 259 260 261 261 261 261 261 261 263 265 265 267 268 268 266 263 265 266 264 264 264 265 267 265 262 261 266 269 267 264 263 264 264 265 268 270 270 270 270 270 270 271 273 275 277 278 279 279 279 280 282 284 286 287 288 288 289 290 291 291 291 292 292 291 291 290 290 290 291 292 294 295 296 297 299 300 302 303 304 305 306 306
258 258 258 259 261 262 261 260 262 263 263 262 263 264 266 266 267 269 269 265 265 266 263 263 265 266 268 267 264 259 261 267 269 266 264 264 264 265 266 268 270 270 270 270 270 271 273 274 276 278 279 279 280 281 283 284 286 287 288 289 291 291 292 291 291 291 291 291 290 290 290 289 290 290 291 292 293 294 296 297 299 300 301 302 303 304
258 258 259 261 262 263 262 262 263 264 264 264 264 264 265 266 267 269 269 267 267 266 264 264 264 266 268 267 267 264 259 261 266 267 266 265 266 267 267 268 269 270 271 270 271 272 273 274 276 277 278 279 280 281 282 283 284 286 287 288 290 290 291 291 291 291 291 291 291 291 291 291 290 290 290 290 290 291 293 294 296 297 297 299 300 301
258 259 261 263 263 262 263 265 265 264 264 264 265 265 264 266 267 268 269 269 268 267 266 266 264 265 268 268 268 267 261 259 262 265 266 266 267 268 268 267 268 269 270 271 272 274 274 276 277 278 279 280 281 281 282 282 283 284 285 286 287 288 289 289 290 290 291 291 291 291 291 291 290 290 289 289 289 289 290 291 292 293 294 296 297 298
260 260 261 262 263 264 264 265 265 265 263 263 264 265 265 266 267 268 269 269 268 268 268 268 266 264 268 271 269 267 265 262 262 263 264 265 265 267 269 269 268 269 270 272 273 274 275 276 278 279 280 281 281 282 281 282 282 283 285 285 286 286 287 287 288 289 290 290 290 290 290 290 289 289 288 287 287 287 287 288 289 290 292 293 294 296
262 262 261 260 263 265 265 264 264 264 263 263 264 265 266 266 267 267 269 269 268 268 269 270 269 264 265 270 268 266 268 268 265 264 263 264 265 266 269 270 269 269 271 272 273 275 276 278 279 280 281 281 282 282 281 282 282 283 283 284 285 286 286 287 287 288 289 290 290 290 290 289 288 287 287 286 286 286 286 287 288 289 289 291 292 294
261 261 261 261 261 263 265 264 263 263 263 264 264 264 265 266 267 268 268 269 269 269 271 272 270 264 262 267 269 268 269 270 269 268 266 265 266 266 267 269 269 270 271 272 274 275 276 277 278 279 280 281 282 282 282 282 282 282 282 283 283 284 285 286 287 288 289 290 290 290 289 289 288 287 287 287 286 286 286 287 287 288 288 290 291 292
260 261 262 261 261 262 264 264 264 263 264 265 265 265 265 266 267 269 269 269 268 270 274 273 269 265 258 260 269 274 273 270 268 269 270 267 266 267 267 268 269 270 271 272 274 275 276 276 277 278 279 280 281 282 282 282 282 282 282 282 283 284 284 285 286 288 288 289 289 289 289 288 288 287 287 287 287 286 286 286 287 287 288 289 290 291
260 261 261 261 262 262 263 264 265 266 266 266 266 266 266 266 267 268 269 270 270 273 274 270 267 266 262 261 268 273 274 273 271 270 271 270 267 267 267 268 269 270 271 273 274 275 275 276 277 278 278 279 280 281 281 281 281 282 282 282 283 283 284 285 286 287 288 288 288 289 288 288 288 287 287 287 287 287 287 287 287 288 288 289 289 290
259 259 260 263 264 263 264 265 266 267 267 266 266 266 266 267 268 269 271 272 273 273 269 266 266 268 269 268 268 268 269 271 272 272 271 271 271 270 269 269 270 271 272 273 274 275 276 276 277 277 277 278 279 279 280 280 281 281 281 282 283 283 284 285 286 286 287 287 287 287 287 287 287 287 287 287 287 287 287 287 287 288 288 288 288 289
260 259 261 263 265 266 266 266 267 267 267 267 266 267 268 269 269 271 272 272 272 269 265 265 268 271 274 272 267 267 265 266 270 272 272 272 272 272 271 271 272 272 273 274 274 275 276 276 276 276 277 278 279 280 280 280 281 281 282 282 283 284 285 285 286 286 286 286 287 287 287 287 287 286 286 286 286 286 287 287 287 287 287 287 288 289
262 262 262 264 266 267 267 266 267 267 267 267 268 268 269 269 269 270 271 270 269 266 264 266 269 272 276 271 266 264 261 262 267 270 271 272 272 272 272 272 272 273 273 274 274 275 275 275 276 277 278 279 279 280 280 280 281 282 283 284 284 285 286 286 287 287 287 287 288 288 288 287 286 286 286 286 286 287 287 287 287 286 287 287 289 290
263 264 265 265 265 265 266 267 267 266 267 268 269 268 268 268 268 268 267 266 266 266 266 267 268 271 271 267 264 264 263 262 263 265 267 269 271 271 271 272 272 272 273 273 273 273 273 274 275 276 276 277 278 278 279 280 281 282 283 284 285 286 286 287 288 288 288 289 289 290 290 289 288 287 287 287 286 286 286 286 286 286 287 288 290 291
264 264 265 266 265 266 267 268 268 268 269 270 269 268 269 270 269 265 264 264 264 265 265 266 268 269 266 262 262 264 266 265 263 263 265 267 268 270 270 271 271 271 271 272 272 272 273 273 274 275 276 277 277 278 279 280 282 283 284 285 286 286 287 288 289 289 290 290 291 291 290 289 288 287 287 286 285 285 285 286 287 288 289 289 290 291
263 263 264 266 268 269 270 270 270 271 271 270 270 270 271 270 268 266 265 265 264 262 263 266 268 268 266 265 265 265 265 266 266 265 265 266 268 269 270 270 270 271 272 272 273 273 273 274 275 276 276 277 278 278 280 281 283 284 285 286 286 287 287 288 289 289 290 290 290 289 288 287 286 285 285 285 285 285 286 287 287 288 289 290 290 291
262 263 265 267 269 270 271 271 271 272 272 272 272 272 271 268 268 268 266 265 264 263 263 264 266 267 267 268 268 266 265 266 268 269 269 269 270 270 270 271 271 272 272 273 273 273 274 275 275 276 276 277 278 279 281 282 283 285 285 286 286 287 288 288 289 289 289 289 289 288 287 286 285 284 284 285 285 286 286 287 287 288 289 290 291 291
261 262 263 265 268 270 271 271 272 273 273 272 271 271 269 269 269 269 268 267 267 266 264 263 263 264 267 268 268 267 268 268 269 270 271 272 272 272 272 273 273 274 273 273 274 274 274 274 275 275 276 277 278 280 282 283 284 285 285 285 286 287 288 288 289 289 289 289 288 287 286 285 285 285 285 285 286 286 287 287 288 289 290 290 291 291
262 262 261 262 265 267 268 270 272 274 273 270 267 267 268 270 271 271 271 270 269 268 266 263 262 263 265 266 266 269 271 272 272 272 272 272 272 273 273 273 274 274 274 274 274 274 274 274 275 275 276 278 280 281 283 283 284 284 284 285 286 287 288 288 288 288 288 288 287 286 286 285 285 285 286 286 287 287 288 289 289 289 290 291 291 292
264 264 263 262 263 264 266 269 270 271 270 268 268 268 269 270 270 270 271 271 271 270 268 263 262 264 265 266 268 271 273 274 274 273 273 272 272 273 273 274 274 274 275 274 274 274 275 275 275 276 278 280 281 282 283 283 284 284 285 286 287 287 287 287 287 287 287 287 286 286 286 286 286 286 286 287 287 288 288 289 289 290 290 291 292 293
264 265 265 263 262 263 265 267 268 267 268 269 270 269 269 270 270 270 270 272 272 270 268 265 264 266 269 270 271 271 271 271 273 273 272 272 272 272 273 273 274 275 275 276 276 276 276 276 277 278 280 282 282 283 283 283 284 284 285 286 286 286 286 286 286 286 285 285 286 286 286 286 287 287 287 287 288 288 289 289 290 290 291 292 292 293
263 264 264 264 264 265 265 265 266 266 267 268 268 268 269 270 271 271 270 269 269 268 269 268 267 268 271 271 268 266 266 269 272 273 273 272 272 273 273 274 275 276 276 277 277 277 278 278 279 280 282 283 283 283 283 283 283 284 285 285 285 285 285 285 285 285 285 286 287 287 287 288 288 288 288 288 288 289 289 290 290 291 292 292 292 292
263 263 264 265 265 263 263 263 265 266 266 267 268 269 269 268 268 268 267 266 267 269 271 272 271 269 269 270 268 265 265 267 270 272 274 274 274 274 275 276 276 277 277 277 278 278 278 279 280 282 283 283 283 282 282 282 283 283 284 284 284 285 285 285 285 285 286 287 287 288 288 288 288 289 289 289 289 289 290 290 291 291 291 291 292 292
263 264 264 264 263 262 261 263 265 266 266 266 266 265 264 265 266 267 268 269 269 272 274 274 275 275 271 269 268 268 267 267 268 271 273 275 276 276 276 276 277 277 278 278 278 279 280 281 283 283 283 283 281 281 281 282 283 283 283 284 284 284 284 284 285 285 286 287 288 288 288 289 289 289 289 289 289 290 290 290 291 291 291 291 292 292
262 263 263 263 263 264 264 264 265 264 263 262 261 261 263 266 267 268 270 270 271 275 275 274 276 277 271 268 268 270 271 269 269 270 271 273 275 277 277 277 277 278 278 279 280 282 284 285 285 284 283 281 280 280 281 282 283 283 283 283 284 284 284 284 285 286 287 288 288 288 289 289 289 289 289 289 289 290 290 290 290 291 291 292 292 291
261 262 262 263 264 265 266 266 263 261 260 260 260 261 263 265 267 268 269 270 274 276 274 274 276 274 272 271 271 270 271 272 273 273 273 273 274 275 276 277 278 279 280 281 283 285 286 286 285 283 281 280 280 281 282 282 282 282 283 283 283 284 285 286 287 287 287 288 288 288 288 289 289 289 289 289 289 289 290 290 291 291 291 291 290 290
259 260 261 263 264 265 266 265 263 260 259 260 261 261 261 263 266 267 267 271 275 273 271 275 277 273 273 274 273 272 272 273 273 274 274 274 274 275 276 278 279 281 282 283 285 286 286 285 284 282 281 280 281 281 282 281 281 282 283 283 284 285 286 287 287 286 286 287 287 287 288 288 288 289 289 289 289 290 290 290 290 290 290 290 289 289
257 259 260 261 262 263 263 264 263 262 260 259 260 261 263 264 265 267 268 271 272 271 272 276 275 273 274 274 273 274 274 274 274 274 274 275 276 277 278 279 280 282 283 284 285 285 284 283 282 281 281 281 281 281 281 281 282 283 283 284 285 286 286 286 285 285 286 286 286 287 287 287 288 288 289 289 289 290 290 290 290 289 289 289 289 289
257 258 258 259 260 260 261 262 263 263 263 261 261 262 264 266 266 268 270 271 271 272 274 275 273 273 274 273 274 275 275 275 275 275 276 277 278 279 280 280 280 281 282 282 283 283 282 281 281 281 281 282 281 281 282 282 283 283 284 285 285 285 285 284 284 285 285 285 286 286 286 287 287 288 288 288 289 289 289 289 289 289 289 289 290 291
256 257 257 258 258 258 259 261 263 264 264 263 263 263 264 266 268 269 270 271 272 273 274 272 271 272 273 273 274 274 274 274 275 276 277 278 279 279 279 279 279 280 281 281 281 280 280 279 280 281 281 280 280 281 282 283 283 283 284 284 283 283 283 284 284 284 284 285 285 285 286 286 287 287 288 288 289 289 289 289 289 290 290 292 293 295
255 256 257 258 258 258 258 261 262 263 263 263 262 263 265 267 269 270 270 271 271 272 272 271 271 272 274 273 272 272 273 275 277 278 278 278 278 278 278 279 280 280 280 279 278 278 278 279 280 280 280 280 281 281 282 282 282 283 283 282 282 283 283 283 284 284 284 284 285 285 286 286 287 287 288 288 289 289 290 290 291 292 294 296 298 300
256 257 258 259 260 259 258 259 260 261 262 262 262 264 267 268 267 267 268 269 271 272 272 271 272 273 273 271 272 273 274 275 276 276 277 277 278 279 280 280 279 278 277 276 276 277 278 280 281 281 280 280 279 279 280 281 282 282 282 282 282 283 283 284 284 284 284 285 285 285 286 286 287 288 288 289 291 291 292 293 295 296 298 300 303 305
256 258 258 259 260 260 259 259 259 260 261 261 263 266 267 266 265 266 267 268 270 271 271 271 273 273 272 272 274 274 273 273 274 275 277 278 279 279 279 278 278 277 277 277 277 279 280 281 281 280 280 279 278 278 279 280 281 282 282 283 283 283 284 284 284 285 285 285 285 286 287 287 288 289 291 292 293 294 295 297 298 300 302 305 307 308
257 258 259 260 261 261 260 259 260 260 261 263 265 266 265 266 267 267 267 267 268 269 270 271 271 271 271 273 273 274 274 276 276 276 277 278 278 278 278 278 278 278 278 279 280 281 281 281 281 280 279 279 279 279 280 281 282 282 283 283 284 284 284 285 285 286 286 286 287 287 288 289 291 292 294 296 297 298 299 301 303 305 307 308 310 311
258 259 260 261 262 263 262 261 260 261 262 264 265 264 265 267 268 269 269 268 268 268 269 270 270 271 272 273 274 275 276 277 277 277 278 278 278 278 278 278 278 279 280 281 282 282 282 281 281 281 280 280 280 280 281 282 282 283 284 285 285 286 286 286 287 287 287 288 288 289 290 293 295 297 298 299 300 302 304 305 307 308 310 311 311 312
260 261 261 262 263 264 264 263 264 264 264 264 264 265 267 268 269 270 269 269 269 269 269 269 271 273 274 274 275 276 276 277 277 278 279 279 279 278 279 279 280 281 282 283 283 283 283 282 282 281 281 281 281 281 282 282 283 285 286 286 287 288 288 288 288 289 289 290 291 293 295 298 299 300 301 303 304 306 307 309 310 310 311 312 312 313
261 262 263 264 265 266 266 267 267 266 265 265 266 268 268 269 269 270 269 269 270 271 272 273 274 275 275 276 276 276 276 277 278 279 280 280 279 279 280 281 283 284 284 284 284 284 283 283 282 282 282 282 282 283 284 284 286 287 288 288 289 289 289 290 291 291 292 294 296 299 301 302 303 304 305 306 308 309 309 310 311 311 312 312 313 313
262 263 264 265 265 266 266 267 267 268 268 270 270 270 270 270 271 271 271 271 272 274 275 276 276 276 276 276 276 277 277 279 280 281 280 279 280 281 282 283 284 285 285 284 284 284 284 284 284 284 284 284 285 286 286 287 288 289 290 290 291 291 292 293 294 295 297 300 302 303 304 305 306 307 308 309 309 310 311 311 312 312 312 313 313 313
264 265 265 266 266 267 268 269 270 271 272 272 272 272 272 272 271 271 271 273 274 275 276 276 276 276 276 277 277 278 279 280 280 280 279 280 282 282 283 284 284 285 285 285 285 285 286 286 286 286 287 287 288 289 289 290 291 292 292 293 293 294 296 297 298 300 302 304 304 305 306 307 308 309 309 310 310 311 311 311 312 312 313 313 313 313
264 265 265 266 267 268 269 269 270 271 272 272 272 271 271 271 270 270 272 273 274 273 273 274 275 276 277 278 278 279 279 279 280 280 280 281 282 283 284 284 284 285 285 286 287 287 288 288 289 290 290 291 291 292 292 293 293 294 295 296 297 299 300 301 302 303 304 305 306 307 308 308 309 309 310 310 311 311 311 311 312 312 313 313 313 313
264 264 265 266 267 268 268 269 270 270 271 271 270 270 269 269 269 270 271 272 272 271 272 274 275 276 277 278 279 279 280 280 281 281 281 282 282 283 283 283 284 285 286 287 288 289 290 291 292 292 293 293 293 294 294 295 296 297 298 299 300 301 301 302 303 305 305 306 307 308 308 309 309 310 310 310 311 311 311 311 312 312 312 312 312 312
265 265 265 266 267 267 268 268 269 269 270 270 270 270 269 269 269 270 270 271 271 272 273 275 275 276 277 278 279 280 280 281 282 282 282 282 282 282 282 283 284 286 287 289 290 291 292 293 293 294 294 295 295 296 296 297 298 299 300 301 301 301 302 303 304 305 306 307 307 308 308 309 309 310 310 310 310 310 310 311 311 311 311 311 311 311
264 265 265 266 267 268 268 269 269 270 270 270 269 269 269 269 269 270 270 271 272 273 274 275 276 276 277 278 279 280 281 281 281 281 281 282 282 282 283 285 286 288 290 291 292 292 293 294 294 295 296 296 297 297 298 299 299 300 300 300 300 301 303 304 305 305 306 307 307 308 308 308 309 309 309 309 309 309 310 310 310 311 310 310 310 310
262 263 264 266 267 267 268 269 269 270 270 269 269 269 269 270 270 271 272 272 273 273 274 275 276 277 278 278 279 280 280 281 281 282 283 284 285 286 287 288 290 291 292 292 293 293 294 295 295 296 297 297 297 298 298 299 299 299 299 300 300 302 303 304 304 305 306 306 307 307 307 307 308 308 308 308 308 309 309 310 310 310 309 309 309 309
261 262 263 264 265 266 267 268 269 269 270 270 270 270 270 271 271 272 272 272 273 274 275 275 276 277 278 279 279 280 281 282 283 284 286 287 287 288 289 290 290 291 291 292 293 293 294 295 295 296 297 297 297 297 298 298 298 299 299 300 301 302 303 303 304 305 305 305 306 306 306 306 306 307 307 308 308 308 309 309 309 309 309 309 308 308
261 262 262 263 264 265 266 267 268 269 269 270 270 270 271 271 272 272 273 274 275 276 276 277 278 278 279 280 281 282 283 284 285 285 286 286 287 287 288 289 289 290 290 291 292 292 293 294 294 295 296 296 296 296 297 297 298 298 299 300 301 302 302 303 303 304 304 304 304 305 305 305 306 306 307 307 308 308 308 308 308 308 308 308 307 307
261 262 262 263 263 264 265 266 267 267 267 268 269 270 270 271 272 273 274 276 276 277 277 277 278 278 280 281 282 282 283 284 284 284 285 285 285 285 286 287 287 288 289 290 291 291 292 293 293 294 295 295 295 296 296 297 298 298 299 300 301 302 302 302 302 302 303 303 304 304 304 305 305 306 306 307 307 307 307 307 307 307 307 307 306 306
260 261 262 262 263 263 264 265 265 265 266 267 268 269 270 271 272 273 274 275 275 276 276 277 277 278 280 281 281 282 282 282 283 283 283 283 284 285 285 286 287 287 288 289 290 291 291 292 293 293 294 294 295 296 297 297 298 299 299 300 300 301 301 301 301 302 302 303 303 304 304 305 305 305 305 305 306 306 306 306 306 306 306 306 306 306
260 261 262 262 263 263 263 264 264 264 265 266 268 269 271 271 272 272 273 273 274 274 275 276 277 278 279 280 280 280 281 281 281 282 282 283 284 284 285 286 287 287 288 289 290 290 291 292 292 293 293 294 295 296 297 298 298 298 299 299 299 299 300 300 301 301 302 302 303 303 304 304 304 304 305 305 305 305 305 305 305 305 305 305 305 305
259 260 261 261 262 262 263 263 264 264 265 267 268 269 270 270 271 271 272 273 273 274 275 276 277 277 278 278 279 279 280 280 281 281 282 283 284 284 285 286 287 287 288 289 290 290 291 291 292 293 294 294 295 296 296 297 297 297 298 298 298 299 299 300 300 301 301 301 302 302 303 303 303 304 304 304 305 305 304 304 304 304 304 304 304 304
258 259 260 260 261 261 262 263 264 264 265 266 267 268 269 270 270 271 272 272 273 274 275 275 276 276 277 277 278 279 279 280 281 281 282 283 283 284 285 286 287 287 288 289 289 290 290 291 292 293 293 294 295 295 295 296 296 296 297 298 298 299 299 299 300 300 300 300 301 301 302 303 303 303 304 304 304 304 304 304 303 303 303 303 303 303
Height
10740 10743 10746 10742 10737 10737 10742 10746 10747 10748 10750 10751 10750 10752 10751 10750 10750 10750 10756 10757 10753 10757 10759 10758 10759 10758 10757 10759 10759 10757 10756 10756 10758 10759 10759 10758 10758 10758 10758 10758 10758 10758 10758 10759 10759 10758 10758 10758 10759 10759 10759 10759 10759 10758 10757 10757 10756 10756 10755 10754 10754 10753 10753 10752 10751 10750 10749 10748 10747 10746 10745 10744 10742 10741 10739 10738 10736 10735 10733 10731 10729 10727 10725 10724 10722 10721
10734 10740 10741 10733 10731 10736 10740 10740 10741 10744 10746 10746 10746 10747 10747 10747 10745 10745 10751 10753 10750 10754 10755 10753 10756 10755 10753 10754 10756 10756 10752 10751 10754 10755 10754 10754 10754 10754 10754 10754 10755 10754 10754 10755 10754 10754 10754 10754 10754 10755 10755 10755 10755 10754 10753 10752 10752 10751 10750 10750 10749 10749 10748 10748 10747 10746 10745 10744 10743 10742 10741 10739 10738 10736 10734 10733 10731 10729 10727 10725 10723 10721 10719 10717 10715 10714
10730 10735 10734 10729 10729 10733 10734 10735 10736 10739 10741 10742 10742 10742 10743 10742 10741 10741 10746 10748 10747 10750 10750 10749 10752 10752 10749 10749 10751 10753 10752 10748 10748 10750 10750 10751 10750 10750 10750 10751 10751 10750 10751 10751 10750 10750 10751 10750 10750 10751 10751 10751 10750 10749 10749 10748 10747 10747 10746 10745 10745 10744 10744 10743 10742 10741 10740 10739 10738 10737 10736 10734 10732 10730 10729 10727 10725 10723 10721 10719 10717 10715 10713 10711 10709 10707
10727 10729 10728 10727 10726 10727 10727 10730 10733 10735 10736 10736 10737 10738 10739 10737 10737 10738 10740 10743 10744 10744 10745 10746 10749 10749 10745 10745 10745 10747 10749 10746 10744 10745 10746 10747 10746 10746 10747 10747 10747 10746 10746 10746 10746 10746 10747 10746 10746 10746 10747 10746 10746 10745 10744 10744 10743 10742 10742 10741 10740 10740 10739 10738 10736 10735 10734 10733 10732 10731 10729 10728 10726 10724 10723 10721 10719 10717 10715 10713 10710 10708 10706 10704 10702 10700
10723 10724 10725 10723 10720 10721 10723 10726 10729 10730 10731 10731 10731 10733 10734 10732 10732 10734 10735 10738 10739 10739 10741 10742 10746 10747 10741 10741 10742 10740 10743 10743 10741 10740 10741 10742 10742 10741 10742 10743 10743 10742 10742 10742 10742 10742 10742 10742 10742 10742 10742 10742 10741 10741 10740 10739 10738 10738 10737 10736 10736 10735 10734 10732 10731 10730 10729 10727 10726 10725 10723 10721 10720 10718 10717 10715 10713 10711 10709 10706 10704 10702 10699 10697 10695 10693
10718 10720 10722 10718 10713 10715 10719 10722 10723 10724 10725 10726 10727 10728 10728 10728 10728 10729 10731 10734 10735 10734 10736 10737 10742 10745 10739 10736 10736 10734 10736 10739 10737 10736 10736 10738 10738 10737 10737 10738 10739 10738 10737 10737 10737 10737 10737 10737 10737 10737 10737 10736 10736 10736 10735 10734 10733 10733 10732 10731 10731 10729 10728 10727 10726 10725 10723 10722 10720 10719 10717 10715 10714 10712 10710 10708 10706 10704 10702 10700 10697 10695 10693 10690 10688 10686
10714 10714 10714 10713 10710 10710 10713 10716 10717 10717 10718 10721 10723 10722 10722 10722 10723 10725 10726 10729 10731 10731 10732 10733 10735 10740 10739 10732 10728 10728 10731 10732 10731 10731 10732 10733 10733 10733 10733 10732 10733 10733 10732 10732 10732 10732 10732 10732 10732 10732 10731 10731 10730 10730 10729 10728 10728 10727 10727 10726 10725 10724 10723 10721 10720 10719 10717 10716 10714 10713 10711 10709 10707 10705 10703 10701 10699 10697 10695 10693 10690 10688 10685 10683 10680 10677
10708 10706 10706 10707 10707 10706 10707 10709 10710 10711 10713 10716 10718 10717 10717 10717 10717 10719 10721 10724 10726 10726 10729 10730 10727 10732 10738 10729 10719 10724 10728 10726 10723 10723 10726 10729 10728 10728 10729 10727 10727 10728 10727 10727 10727 10727 10727 10727 10727 10726 10725 10725 10724 10724 10723 10723 10722 10722 10721 10720 10719 10718 10717 10716 10714 10713 10711 10710 10708 10706 10704 10702 10700 10698 10696 10694 10692 10690 10688 10685 10683 10680 10678 10675 10672 10669
10701 10700 10700 10700 10701 10703 10703 10701 10702 10704 10708 10712 10711 10711 10712 10712 10712 10714 10716 10719 10721 10723 10728 10725 10718 10722 10734 10729 10718 10720 10722 10719 10716 10716 10719 10723 10723 10723 10723 10722 10721 10722 10722 10721 10721 10722 10721 10721 10721 10721 10720 10719 10718 10718 10717 10717 10716 10716 10715 10714 10713 10712 10711 10709 10708 10707 10705 10703 10702 10700 10698 10696 10693 10691 10689 10687 10685 10682 10680 10678 10675 10672 10670 10667 10664 10662
10696 10696 10691 10692 10696 10698 10697 10695 10696 10699 10703 10706 10705 10705 10706 10706 10707 10707 10710 10713 10715 10723 10725 10717 10709 10713 10725 10729 10721 10719 10715 10709 10708 10711 10713 10714 10716 10718 10717 10715 10716 10716 10716 10716 10715 10715 10715 10715 10715 10715 10714 10712 10712 10711 10711 10710 10710 10709 10708 10707 10707 10706 10704 10703 10702 10700 10698 10697 10695 10693 10691 10689 10687 10685 10682 10680 10678 10675 10672 10670 10667 10664 10662 10659 10656 10653
10689 10688 10684 10687 10690 10692 10692 10691 10692 10694 10697 10699 10699 10700 10699 10700 10702 10702 10705 10707 10711 10720 10717 10707 10704 10707 10720 10727 10720 10716 10713 10703 10700 10703 10706 10706 10708 10710 10709 10709 10709 10709 10710 10709 10709 10709 10709 10709 10708 10708 10707 10706 10705 10705 10704 10704 10703 10702 10702 10701 10700 10699 10697 10696 10694 10693 10691 10690 10688 10686 10684 10682 10680 10677 10675 10673 10670 10667 10665 10662 10659 10656 10653 10651 10647 10644
10680 10682 10682 10682 10683 10686 10687 10686 10687 10688 10690 10691 10693 10694 10693 10695 10697 10697 10700 10701 10705 10711 10707 10701 10700 10704 10716 10721 10713 10710 10709 10701 10695 10695 10698 10699 10700 10702 10702 10701 10702 10702 10703 10703 10703 10703 10702 10702 10701 10700 10700 10699 10698 10698 10697 10697 10696 10695 10694 10693 10693 10691 10690 10688 10687 10686 10684 10682 10680 10678 10676 10674 10672 10669 10667 10664 10662 10659 10656 10653 10651 10648 10644 10641 10637 10634
10672 10675 10677 10678 10679 10679 10678 10679 10681 10682 10683 10685 10688 10689 10688 10688 10690 10692 10694 10695 10697 10701 10700 10698 10698 10702 10712 10712 10704 10702 10701 10698 10694 10691 10690 10691 10693 10695 10694 10694 10695 10695 10696 10696 10696 10696 10695 10695 10694 10693 10693 10692 10692 10691 10690 10690 10689 10688 10687 10686 10685 10684 10683 10681 10679 10678 10676 10674 10672 10670 10668 10666 10663 10661 10658 10656 10653 10650 10647 10644 10641 10638 10635 10631 10627 10624
10666 10668 10669 10672 10673 10671 10670 10672 10675 10676 10678 10681 10682 10681 10681 10682 10683 10686 10687 10686 10689 10692 10694 10694 10694 10701 10706 10702 10695 10692 10692 10693 10691 10687 10685 10685 10686 10688 10687 10688 10688 10688 10688 10688 10689 10689 10688 10688 10688 10687 10686 10686 10685 10684 10684 10683 10682 10681 10680 10678 10677 10676 10674 10673 10671 10669 10667 10665 10663 10661 10659 10657 10654 10652 10649 10646 10644 10641 10638 10635 10631 10628 10624 10620 10617 10613
10659 10662 10662 10662 10664 10664 10665 10666 10667 10671 10674 10675 10674 10674 10677 10676 10674 10677 10678 10679 10683 10685 10687 10689 10691 10695 10696 10693 10690 10687 10684 10684 10683 10682 10681 10680 10680 10681 10681 10681 10681 10681 10681 10681 10682 10682 10682 10681 10681 10680 10680 10679 10678 10678 10677 10676 10675 10674 10672 10670 10669 10667 10665 10664 10662 10660 10658 10656 10654 10652 10650 10648 10645 10643 10640 10637 10634 10631 10628 10625 10621 10617 10614 10610 10606 10602
10649 10654 10656 10655 10657 10658 10659 10660 10661 10666 10669 10668 10666 10669 10672 10667 10663 10668 10672 10674 10675 10678 10683 10685 10686 10687 10686 10686 10686 10683 10679 10674 10672 10675 10676 10675 10675 10675 10674 10674 10674 10674 10675 10675 10675 10675 10675 10674 10674 10673 10673 10672 10671 10670 10670 10668 10667 10666 10664 10662 10660 10658 10657 10655 10653 10651 10649 10647 10645 10644 10641 10639 10636 10633 10630 10627 10624 10621 10617 10614 10610 10607 10603 10600 10596 10591
10642 10646 10652 10652 10652 10651 10651 10653 10654 10659 10663 10662 10660 10662 10662 10657 10656 10661 10665 10667 10666 10671 10679 10680 10680 10680 10678 10680 10681 10676 10673 10669 10666 10668 10669 10669 10670 10668 10667 10667 10668 10668 10668 10668 10668 10668 10668 10667 10667 10666 10665 10664 10663 10663 10662 10660 10659 10657 10655 10653 10651 10650 10648 10646 10645 10642 10641 10638 10636 10634 10632 10629 10627 10624 10621 10618 10614 10611 10607 10604 10600 10597 10593 10589 10585 10581
10634 10641 10647 10647 10647 10646 10644 10645 10648 10653 10657 10656 10654 10654 10651 10649 10652 10654 10656 10659 10659 10663 10672 10673 10672 10673 10672 10675 10674 10668 10666 10664 10662 10662 10663 10662 10662 10661 10661 10660 10661 10661 10660 10661 10661 10660 10660 10659 10659 10658 10657 10656 10656 10655 10654 10652 10651 10649 10646 10644 10642 10641 10640 10638 10636 10634 10631 10629 10627 10625 10622 10620 10617 10614 10611 10607 10604 10600 10597 10594 10590 10587 10583 10578 10574 10570
10627 10632 10638 10642 10642 10640 10637 10639 10644 10646 10647 10647 10647 10646 10645 10645 10647 10646 10647 10651 10652 10655 10663 10665 10664 10666 10668 10669 10668 10664 10661 10657 10656 10657 10656 10655 10654 10654 10654 10653 10653 10652 10652 10653 10653 10652 10653 10651 10651 10650 10649 10649 10649 10648 10647 10644 10643 10640 10638 10636 10634 10633 10631 10629 10627 10624 10622 10620 10618 10616 10613 10611 10608 10604 10601 10597 10593 10590 10587 10583 10580 10576 10571 10567 10563 10559
10617 10620 10629 10637 10636 10632 10633 10636 10639 10638 10635 10636 10640 10642 10641 10640 10639 10638 10639 10643 10644 10646 10652 10655 10657 10661 10663 10663 10663 10663 10658 10651 10648 10648 10648 10648 10647 10646 10646 10645 10645 10645 10644 10645 10645 10645 10644 10643 10642 10641 10641 10642 10641 10640 10638 10636 10634 10631 10629 10627 10625 10623 10621 10620 10618 10616 10613 10611 10609 10606 10604 10601 10597 10593 10590 10586 10583 10579 10576 10572 10568 10564 10560 10556 10552 10547
10608 10612 10618 10625 10626 10627 10630 10631 10629 10627 10627 10630 10635 10637 10635 10632 10630 10631 10635 10637 10635 10636 10640 10644 10651 10658 10658 10658 10660 10657 10652 10645 10640 10640 10640 10640 10639 10639 10638 10637 10637 10637 10637 10637 10637 10637 10636 10634 10634 10634 10634 10634 10633 10631 10629 10626 10624 10621 10620 10618 10616 10614 10612 10611 10609 10606 10604 10602 10599 10597 10593 10590 10586 10582 10579 10575 10572 10568 10565 10561 10557 10553 10549 10545 10540 10536
10598 10603 10606 10612 10620 10623 10623 10622 10620 10621 10624 10625 10626 10628 10628 10626 10622 10622 10628 10630 10625 10627 10631 10633 10646 10657 10653 10651 10653 10649 10644 10641 10634 10632 10631 10630 10631 10631 10630 10631 10631 10630 10630 10630 10630 10629 10628 10627 10626 10627 10627 10626 10624 10622 10618 10616 10614 10612 10611 10609 10606 10605 10603 10602 10599 10597 10594 10592 10590 10587 10582 10578 10575 10571 10568 10564 10561 10557 10553 10550 10546 10542 10538 10533 10529 10524
10589 10593 10597 10602 10611 10613 10613 10616 10616 10616 10619 10619 10620 10622 10618 10616 10614 10611 10615 10619 10617 10622 10628 10626 10637 10652 10648 10642 10642 10638 10637 10636 10629 10625 10623 10621 10623 10624 10624 10624 10624 10623 10623 10623 10623 10621 10620 10620 10620 10620 10619 10617 10615 10612 10609 10607 10606 10604 10602 10600 10597 10596 10594 10592 10589 10586 10584 10582 10579 10575 10570 10567 10564 10560 10557 10553 10549 10545 10542 10538 10535 10531 10526 10522 10517 10511
10582 10584 10588 10591 10594 10599 10605 10612 10613 10613 10613 10612 10613 10610 10605 10606 10606 10602 10606 10610 10613 10622 10623 10618 10630 10644 10640 10633 10630 10627 10629 10629 10624 10620 10618 10615 10614 10615 10616 10617 10616 10616 10616 10615 10615 10614 10614 10614 10614 10613 10611 10608 10605 10601 10600 10599 10597 10595 10593 10591 10588 10586 10584 10581 10579 10576 10574 10572 10567 10563 10559 10556 10552 10549 10545 10541 10537 10533 10530 10527 10523 10519 10514 10509 10504 10498
10574 10575 10577 10578 10581 10588 10599 10608 10610 10607 10602 10599 10600 10600 10600 10601 10598 10597 10601 10601 10608 10620 10615 10611 10625 10633 10626 10623 10623 10620 10619 10618 10617 10616 10613 10611 10608 10606 10607 10607 10607 10608 10607 10607 10608 10607 10607 10607 10605 10604 10601 10598 10594 10592 10591 10590 10588 10585 10583 10581 10578 10576 10574 10571 10568 10566 10564 10560 10555 10551 10548 10544 10540 10537 10533 10529 10524 10521 10518 10515 10511 10506 10501 10496 10491 10484
10567 10564 10565 10569 10573 10581 10591 10598 10598 10593 10587 10588 10594 10595 10596 10593 10589 10592 10593 10593 10606 10614 10603 10604 10619 10620 10613 10614 10616 10613 10611 10610 10610 10608 10607 10605 10602 10599 10597 10597 10599 10599 10599 10600 10601 10601 10600 10598 10595 10593 10590 10587 10585 10583 10582 10580 10577 10575 10573 10571 10568 10565 10563 10560 10557 10555 10552 10548 10544 10540 10536 10532 10528 10525 10520 10515 10511 10509 10506 10503 10498 10493 10489 10483 10477 10470
10558 10555 10558 10563 10567 10574 10582 10583 10579 10579 10581 10584 10586 10586 10586 10586 10584 10582 10585 10594 10601 10595 10593 10604 10608 10605 10606 10606 10603 10604 10604 10602 10602 10600 10598 10596 10593 10592 10592 10591 10591 10591 10591 10592 10593 10592 10590 10587 10585 10582 10579 10577 10576 10574 10572 10570 10567 10565 10563 10560 10557 10554 10552 10549 10546 10543 10540 10537 10533 10528 10524 10520 10516 10512 10507 10502 10498 10496 10494 10489 10485 10480 10475 10469 10462 10455
10549 10548 10553 10558 10559 10565 10572 10568 10563 10567 10574 10578 10577 10576 10578 10578 10577 10574 10581 10594 10588 10576 10591 10603 10591 10591 10602 10595 10590 10595 10595 10592 10592 10591 10590 10587 10584 10585 10586 10585 10585 10583 10583 10584 10584 10583 10580 10577 10574 10571 10569 10568 10566 10564 10562 10559 10557 10555 10552 10549 10546 10544 10541 10537 10534 10532 10529 10525 10521 10515 10511 10508 10504 10500 10493 10488 10486 10484 10480 10475 10471 10467 10461 10454 10447 10439
10540 10540 10547 10549 10547 10555 10562 10558 10555 10556 10562 10566 10568 10570 10571 10568 10570 10572 10577 10583 10573 10567 10589 10594 10577 10583 10593 10582 10580 10587 10584 10582 10582 10581 10581 10580 10578 10578 10577 10576 10576 10576 10576 10576 10575 10574 10570 10566 10563 10561 10560 10559 10556 10553 10551 10548 10546 10543 10541 10538 10535 10532 10529 10526 10523 10521 10517 10513 10508 10503 10499 10495 10492 10486 10480 10475 10474 10471 10466 10461 10456 10451 10445 10438 10431 10424
10530 10531 10538 10537 10534 10544 10553 10552 10550 10547 10548 10554 10557 10561 10564 10563 10565 10567 10569 10571 10563 10562 10580 10578 10566 10576 10581 10573 10574 10575 10570 10572 10572 10571 10573 10572 10571 10570 10567 10567 10567 10567 10569 10568 10566 10564 10560 10557 10555 10554 10552 10549 10545 10543 10541 10538 10535 10532 10530 10527 10523 10520 10518 10515 10512 10508 10504 10500 10495 10490 10486 10483 10478 10473 10467 10463 10461 10456 10450 10445 10440 10434 10428 10422 10415 10408
10521 10523 10529 10527 10522 10534 10549 10547 10541 10537 10536 10540 10545 10551 10559 10563 10562 10558 10559 10560 10553 10555 10567 10561 10556 10571 10573 10562 10561 10561 10560 10563 10562 10562 10562 10560 10561 10560 10557 10558 10558 10558 10559 10557 10554 10552 10549 10548 10546 10544 10542 10539 10536 10533 10529 10526 10524 10521 10519 10514 10511 10509 10506 10503 10500 10495 10491 10487 10481 10477 10473 10469 10464 10458 10453 10450 10446 10440 10433 10428 10423 10417 10411 10404 10398 10391
10514 10515 10521 10519 10511 10526 10545 10538 10528 10528 10523 10522 10535 10551 10558 10558 10552 10547 10548 10550 10545 10548 10551 10544 10549 10565 10559 10545 10549 10554 10554 10553 10551 10550 10549 10548 10550 10550 10548 10548 10547 10546 10546 10544 10542 10541 10538 10537 10535 10533 10531 10528 10525 10522 10518 10516 10513 10510 10506 10501 10499 10497 10493 10490 10486 10481 10478 10473 10468 10463 10460 10455 10450 10443 10439 10436 10430 10423 10416 10411 10405 10399 10393 10388 10381 10374
10507 10506 10510 10509 10503 10517 10533 10525 10518 10518 10508 10510 10537 10554 10550 10542 10537 10536 10542 10545 10540 10538 10536 10535 10544 10551 10542 10536 10542 10543 10541 10541 10541 10540 10539 10539 10540 10538 10537 10536 10534 10533 10532 10530 10530 10529 10527 10526 10524 10522 10520 10517 10514 10511 10508 10505 10501 10497 10492 10489 10486 10484 10480 10476 10472 10467 10464 10459 10453 10450 10446 10441 10434 10428 10424 10420 10412 10405 10399 10393 10388 10382 10376 10371 10364 10357
10498 10498 10501 10500 10496 10505 10518 10515 10508 10502 10498 10514 10540 10544 10534 10529 10526 10527 10533 10537 10533 10528 10527 10529 10534 10534 10531 10530 10530 10529 10528 10529 10529 10530 10531 10531 10529 10526 10525 10524 10521 10519 10518 10518 10519 10518 10515 10514 10511 10509 10507 10504 10502 10500 10496 10493 10488 10483 10480 10476 10473 10469 10465 10462 10458 10453 10449 10443 10439 10436 10432 10426 10419 10413 10408 10402 10395 10388 10382 10376 10371 10365 10360 10354 10347 10340
10489 10491 10493 10492 10488 10492 10502 10502 10494 10491 10502 10520 10527 10524 10523 10522 10518 10516 10520 10525 10524 10520 10519 10520 10520 10521 10522 10521 10519 10519 10519 10517 10516 10518 10520 10520 10517 10513 10512 10511 10509 10507 10508 10508 10508 10505 10503 10500 10498 10496 10494 10491 10490 10487 10483 10480 10475 10471 10467 10463 10458 10455 10450 10446 10443 10438 10433 10428 10424 10422 10417 10411 10404 10397 10391 10385 10378 10371 10365 10359 10354 10348 10342 10336 10329 10323
10482 10484 10484 10483 10480 10480 10485 10486 10484 10489 10502 10509 10510 10514 10517 10514 10509 10506 10506 10511 10513 10508 10507 10511 10512 10511 10510 10510 10510 10509 10507 10505 10505 10509 10510 10507 10503 10499 10498 10499 10498 10498 10499 10497 10495 10492 10490 10487 10485 10483 10481 10479 10476 10473 10469 10466 10461 10457 10454 10449 10444 10440 10436 10432 10428 10423 10417 10413 10410 10407 10402 10395 10388 10381 10374 10368 10361 10355 10348 10343 10338 10332 10325 10318 10312 10305
10474 10475 10474 10472 10470 10471 10472 10473 10474 10478 10486 10496 10504 10508 10506 10500 10498 10494 10491 10498 10502 10495 10494 10500 10503 10499 10497 10497 10498 10497 10495 10494 10496 10501 10500 10492 10486 10485 10486 10488 10488 10488 10487 10484 10482 10480 10477 10475 10473 10470 10467 10465 10462 10459 10455 10451 10447 10443 10439 10434 10430 10425 10421 10418 10412 10406 10402 10399 10395 10391 10386 10379 10372 10365 10358 10352 10345 10339 10333 10327 10321 10315 10308 10301 10295 10288
10464 10464 10465 10461 10460 10462 10461 10459 10460 10464 10476 10491 10495 10491 10489 10488 10487 10481 10477 10487 10494 10487 10482 10486 10489 10486 10483 10483 10485 10486 10484 10484 10489 10492 10485 10475 10474 10475 10475 10476 10477 10475 10474 10471 10469 10467 10464 10461 10459 10456 10453 10451 10448 10444 10440 10436 10432 10428 10424 10420 10415 10410 10407 10402 10396 10391 10388 10386 10381 10376 10370 10363 10356 10350 10344 10337 10331 10323 10317 10311 10304 10298 10291 10285 10278 10271
10452 10453 10454 10450 10447 10451 10451 10449 10449 10454 10467 10479 10479 10474 10474 10475 10473 10468 10465 10476 10488 10481 10471 10472 10474 10471 10469 10470 10473 10474 10473 10475 10479 10478 10470 10465 10465 10463 10462 10465 10464 10461 10460 10457 10455 10453 10449 10447 10445 10442 10439 10437 10433 10429 10425 10421 10418 10414 10409 10405 10400 10396 10391 10385 10380 10378 10375 10372 10367 10360 10354 10348 10341 10335 10329 10323 10316 10308 10301 10295 10288 10282 10275 10268 10261 10254
10440 10440 10441 10438 10437 10441 10442 10439 10440 10444 10453 10462 10463 10462 10461 10459 10458 10455 10454 10467 10479 10470 10459 10461 10462 10459 10458 10459 10461 10461 10462 10463 10466 10464 10461 10458 10454 10450 10449 10451 10449 10447 10446 10443 10440 10438 10435 10433 10431 10428 10425 10422 10418 10414 10410 10406 10402 10398 10393 10389 10385 10380 10375 10370 10367 10365 10362 10357 10351 10344 10339 10332 10326 10321 10315 10308 10301 10293 10286 10279 10273 10266 10260 10252 10245 10238
10427 10428 10429 10429 10430 10431 10431 10430 10430 10433 10441 10447 10447 10447 10447 10445 10445 10445 10447 10456 10461 10455 10450 10451 10452 10450 10449 10448 10447 10448 10448 10448 10451 10451 10450 10447 10443 10440 10438 10436 10434 10433 10431 10428 10426 10424 10421 10418 10416 10413 10410 10406 10402 10399 10394 10390 10386 10382 10377 10374 10369 10364 10359 10357 10356 10352 10346 10341 10335 10329 10323 10317 10311 10306 10299 10293 10286 10278 10271 10265 10258 10252 10244 10237 10229 10222
10415 10416 10416 10419 10421 10421 10420 10419 10418 10421 10430 10435 10433 10432 10433 10432 10432 10435 10437 10440 10442 10442 10443 10442 10440 10440 10439 10436 10436 10436 10434 10434 10435 10436 10435 10434 10432 10429 10426 10423 10421 10418 10416 10414 10411 10408 10406 10403 10400 10397 10394 10390 10386 10382 10378 10374 10370 10366 10363 10359 10353 10348 10346 10345 10342 10336 10331 10325 10319 10313 10308 10302 10296 10290 10284 10278 10271 10265 10258 10251 10244 10237 10230 10222 10215 10207
10401 10401 10402 10407 10410 10408 10407 10406 10405 10411 10419 10421 10417 10417 10418 10417 10419 10423 10425 10427 10429 10431 10431 10430 10429 10428 10427 10425 10425 10424 10422 10421 10420 10420 10420 10419 10418 10415 10412 10408 10405 10402 10400 10398 10395 10392 10390 10387 10384 10381 10378 10374 10370 10366 10363 10359 10356 10353 10349 10344 10338 10334 10333 10331 10326 10321 10316 10310 10304 10299 10293 10287 10281 10275 10269 10263 10257 10251 10245 10237 10230 10223 10215 10207 10200 10192
10388 10389 10391 10395 10397 10395 10394 10394 10395 10399 10404 10404 10402 10403 10403 10403 10406 10410 10412 10415 10417 10417 10417 10418 10417 10416 10416 10415 10413 10411 10410 10408 10405 10405 10405 10403 10400 10398 10394 10391 10388 10386 10383 10380 10378 10376 10374 10371 10368 10366 10362 10358 10355 10352 10349 10346 10343 10340 10336 10329 10323 10321 10320 10315 10310 10306 10301 10295 10289 10284 10278 10273 10267 10261 10255 10249 10243 10237 10230 10223 10215 10207 10200 10192 10185 10177
10377 10379 10381 10383 10383 10381 10382 10383 10383 10385 10387 10387 10388 10390 10390 10391 10394 10397 10399 10401 10403 10404 10405 10405 10405 10405 10404 10402 10400 10397 10395 10393 10391 10390 10388 10386 10383 10380 10377 10375 10373 10370 10367 10365 10363 10361 10359 10357 10354 10351 10348 10345 10341 10339 10336 10333 10330 10326 10321 10314 10310 10308 10305 10300 10296 10291 10286 10280 10275 10269 10264 10259 10253 10247 10241 10235 10228 10222 10215 10207 10200 10192 10184 10177 10169 10161
10366 10369 10371 10371 10371 10370 10371 10372 10372 10373 10373 10372 10373 10374 10376 10378 10380 10382 10385 10387 10388 10390 10391 10391 10391 10390 10388 10387 10385 10383 10380 10378 10376 10374 10372 10370 10368 10365 10363 10362 10359 10356 10354 10352 10350 10348 10346 10344 10340 10337 10335 10331 10328 10325 10322 10319 10316 10312 10306 10300 10297 10294 10290 10285 10281 10276 10271 10265 10260 10254 10249 10244 10237 10231 10226 10219 10212 10206 10199 10192 10184 10176 10169 10161 10153 10145
10354 10356 10358 10358 10358 10358 10359 10361 10362 10360 10359 10358 10358 10360 10363 10365 10367 10369 10372 10374 10374 10375 10375 10375 10374 10373 10372 10372 10371 10369 10366 10364 10362 10360 10358 10356 10353 10351 10350 10348 10345 10343 10341 10338 10337 10335 10333 10330 10327 10324 10321 10317 10312 10310 10307 10305 10301 10296 10291 10286 10282 10278 10274 10270 10265 10260 10255 10250 10244 10239 10233 10228 10222 10216 10210 10203 10197 10190 10183 10176 10168 10160 10153 10145 10137 10129
10340 10341 10343 10345 10345 10345 10347 10349 10348 10346 10345 10344 10345 10348 10352 10354 10357 10359 10360 10360 10360 10360 10360 10360 10360 10359 10358 10357 10356 10355 10353 10350 10349 10347 10344 10341 10340 10338 10335 10333 10332 10329 10326 10325 10323 10321 10318 10316 10313 10309 10306 10302 10297 10294 10292 10289 10285 10280 10275 10272 10267 10262 10258 10254 10249 10244 10240 10234 10228 10222 10217 10211 10206 10200 10194 10188 10181 10173 10165 10158 10151 10143 10136 10129 10121 10113
10326 10328 10329 10330 10331 10331 10332 10333 10332 10331 10332 10333 10335 10338 10341 10344 10346 10347 10346 10346 10346 10346 10347 10348 10348 10346 10345 10343 10341 10340 10338 10335 10334 10333 10330 10328 10326 10323 10320 10318 10316 10313 10311 10309 10307 10305 10302 10300 10296 10293 10290 10286 10281 10279 10277 10273 10268 10264 10260 10257 10253 10248 10243 10238 10233 10228 10223 10218 10212 10206 10201 10196 10190 10184 10178 10171 10163 10155 10147 10140 10133 10126 10119 10112 10104 10098
10314 10314 10313 10314 10315 10316 10317 10317 10317 10319 10321 10324 10326 10327 10329 10331 10333 10333 10332 10332 10333 10334 10335 10336 10335 10333 10330 10328 10325 10324 10322 10319 10317 10316 10315 10314 10310 10307 10305 10303 10300 10297 10295 10292 10290 10289 10285 10282 10280 10277 10274 10269 10265 10263 10261 10256 10252 10248 10244 10241 10237 10233 10228 10223 10217 10212 10207 10202 10196 10191 10186 10180 10173 10167 10160 10153 10146 10138 10130 10123 10116 10109 10103 10095 10089 10083
10298 10298 10297 10298 10300 10301 10302 10304 10305 10307 10311 10313 10314 10315 10316 10318 10320 10320 10320 10320 10321 10322 10322 10322 10321 10319 10315 10312 10309 10307 10305 10303 10301 10300 10300 10297 10294 10291 10289 10287 10285 10283 10280 10277 10274 10272 10269 10267 10264 10261 10257 10253 10249 10246 10244 10240 10236 10232 10227 10223 10218 10215 10211 10207 10203 10198 10192 10186 10180 10175 10169 10163 10156 10149 10142 10135 10128 10121 10114 10107 10100 10094 10087 10081 10074 10068